QTR15G OBBI-OMDB

Flight info

Callsign QTR15G
Flight time N/A
Altitude 25000
Route BHR N697 SODAK P559 VUTEB
Aircraft A20N/M-SDE2E3FGHIRWXY/LB1

Departure

Time 2026-04-29 16:20
Airport Bahrain International Airport (OBBI)

Arrival

Time N/A
Airport Dubai International Airport (OMDB)
Time Latitude Longitude Altitude Speed Heading
2026-04-29 15:43 26.26675 50.63284 19 ft 0 kts 213°
2026-04-29 16:07 26.26680 50.63288 19 ft 2 kts 211°
2026-04-29 16:07 26.26694 50.63298 19 ft 2 kts 213°
2026-04-29 16:08 26.26708 50.63308 19 ft 2 kts 213°
2026-04-29 16:08 26.26722 50.63318 20 ft 2 kts 213°
2026-04-29 16:08 26.26736 50.63328 20 ft 2 kts 213°
2026-04-29 16:08 26.26750 50.63338 20 ft 2 kts 213°
2026-04-29 16:09 26.26760 50.63352 21 ft 2 kts 282°
2026-04-29 16:09 26.26753 50.63369 18 ft 2 kts 303°
2026-04-29 16:09 26.26748 50.63377 18 ft 1 kts 305°
2026-04-29 16:12 26.26749 50.63377 18 ft 0 kts 305°
2026-04-29 16:13 26.26756 50.63366 19 ft 6 kts 305°
2026-04-29 16:13 26.26792 50.63304 18 ft 12 kts 301°
2026-04-29 16:14 26.26842 50.63215 18 ft 14 kts 302°
2026-04-29 16:14 26.26910 50.63163 16 ft 11 kts 356°
2026-04-29 16:14 26.26944 50.63233 15 ft 13 kts 99°
2026-04-29 16:14 26.26899 50.63334 15 ft 16 kts 122°
2026-04-29 16:15 26.26830 50.63451 14 ft 20 kts 124°
2026-04-29 16:15 26.26750 50.63590 16 ft 22 kts 122°
2026-04-29 16:15 26.26664 50.63735 19 ft 24 kts 123°
2026-04-29 16:15 26.26571 50.63899 18 ft 26 kts 123°
2026-04-29 16:16 26.26467 50.64077 18 ft 29 kts 122°
2026-04-29 16:16 26.26352 50.64274 14 ft 31 kts 122°
2026-04-29 16:16 26.26234 50.64483 13 ft 30 kts 125°
2026-04-29 16:16 26.26135 50.64651 14 ft 26 kts 122°
2026-04-29 16:17 26.26056 50.64789 16 ft 16 kts 123°
2026-04-29 16:17 26.26034 50.64888 17 ft 13 kts 88°
2026-04-29 16:17 26.26036 50.64915 20 ft 2 kts 80°
2026-04-29 16:17 26.26038 50.64927 18 ft 0 kts 78°
2026-04-29 16:18 26.26049 50.64953 18 ft 7 kts 59°
2026-04-29 16:18 26.26089 50.64996 22 ft 8 kts 38°
2026-04-29 16:19 26.26132 50.64997 24 ft 6 kts 319°
2026-04-29 16:19 26.26148 50.64972 23 ft 0 kts 303°
2026-04-29 16:19 26.26166 50.64942 23 ft 17 kts 304°
2026-04-29 16:19 26.26334 50.64640 23 ft 80 kts 307°
2026-04-29 16:20 26.26753 50.63933 25 ft 135 kts 302°
2026-04-29 16:20 26.27327 50.62948 296 ft 154 kts 305°
2026-04-29 16:20 26.27921 50.61964 879 ft 155 kts 315°
2026-04-29 16:20 26.28872 50.61454 1394 ft 157 kts
2026-04-29 16:21 26.29877 50.61889 1920 ft 165 kts 44°
2026-04-29 16:21 26.30467 50.63064 2241 ft 186 kts 72°
2026-04-29 16:21 26.30865 50.64497 2598 ft 208 kts 71°
2026-04-29 16:21 26.31467 50.66053 3018 ft 229 kts 63°
2026-04-29 16:22 26.32332 50.67647 3479 ft 251 kts 57°
2026-04-29 16:22 26.33402 50.69296 3955 ft 275 kts 54°
2026-04-29 16:22 26.34592 50.71004 4783 ft 281 kts 55°
2026-04-29 16:22 26.35559 50.72924 5678 ft 287 kts 65°
2026-04-29 16:23 26.36446 50.74946 6527 ft 294 kts 65°
2026-04-29 16:23 26.37343 50.77019 7353 ft 300 kts 65°
2026-04-29 16:23 26.38256 50.79134 8203 ft 305 kts 65°
2026-04-29 16:23 26.39185 50.81289 9065 ft 311 kts 64°
2026-04-29 16:24 26.40132 50.83484 9913 ft 317 kts 64°
2026-04-29 16:24 26.41102 50.85736 10549 ft 331 kts 65°
2026-04-29 16:24 26.41713 50.88294 10841 ft 354 kts 88°
2026-04-29 16:24 26.41563 50.91092 11274 ft 368 kts 100°
2026-04-29 16:25 26.41147 50.93922 12067 ft 372 kts 102°
2026-04-29 16:25 26.40683 50.96778 12893 ft 376 kts 102°
2026-04-29 16:25 26.40230 50.99671 13701 ft 381 kts 102°
2026-04-29 16:25 26.39800 51.02574 14361 ft 387 kts 101°
2026-04-29 16:26 26.39368 51.05595 14698 ft 391 kts 101°
2026-04-29 16:26 26.38955 51.08552 14824 ft 392 kts 101°
2026-04-29 16:26 26.38537 51.11559 14857 ft 392 kts 101°
2026-04-29 16:26 26.38119 51.14566 14856 ft 392 kts 101°
2026-04-29 16:27 26.37700 51.17565 14860 ft 391 kts 101°
2026-04-29 16:27 26.37281 51.20560 14861 ft 391 kts 101°
2026-04-29 16:27 26.36865 51.23516 14862 ft 391 kts 101°
2026-04-29 16:27 26.36432 51.26603 14860 ft 391 kts 101°
2026-04-29 16:28 26.36154 51.28584 14859 ft 391 kts 101°
2026-04-29 16:28 26.35730 51.31585 14860 ft 391 kts 101°
2026-04-29 16:28 26.35306 51.34584 14855 ft 391 kts 101°
2026-04-29 16:28 26.34882 51.37578 14858 ft 391 kts 101°
2026-04-29 16:29 26.34457 51.40573 14861 ft 391 kts 101°
2026-04-29 16:29 26.34030 51.43570 14858 ft 391 kts 101°
2026-04-29 16:29 26.33608 51.46536 14858 ft 391 kts 101°
2026-04-29 16:29 26.33181 51.49528 14859 ft 391 kts 101°
2026-04-29 16:30 26.32751 51.52537 14861 ft 391 kts 101°
2026-04-29 16:30 26.32323 51.55532 14859 ft 391 kts 101°
2026-04-29 16:30 26.31892 51.58534 14858 ft 392 kts 101°
2026-04-29 16:30 26.31463 51.61529 14858 ft 391 kts 101°
2026-04-29 16:31 26.31034 51.64515 14859 ft 391 kts 101°
2026-04-29 16:31 26.30601 51.67520 14862 ft 391 kts 101°
2026-04-29 16:31 26.30169 51.70514 14861 ft 391 kts 101°
2026-04-29 16:31 26.29738 51.73500 14860 ft 391 kts 101°
2026-04-29 16:32 26.29307 51.76480 14859 ft 391 kts 101°
2026-04-29 16:32 26.28872 51.79484 14858 ft 391 kts 101°
2026-04-29 16:32 26.28438 51.82481 14859 ft 391 kts 101°
2026-04-29 16:32 26.28004 51.85465 14860 ft 391 kts 101°
2026-04-29 16:33 26.27134 51.91447 14857 ft 391 kts 101°
2026-04-29 16:33 26.26697 51.94443 14856 ft 391 kts 101°
2026-04-29 16:33 26.26264 51.97407 14856 ft 391 kts 101°